NOAA 16 DEB, 41131

Orbit data source: Space-Track

NOAA 16 DEB, 41131 is space debris in SSO originally from a launch on Thu, 21 Sep 2000 UTC launched from the Air Force Western Test Range (AFWTR). Debris objects in space refer to the collection of defunct objects orbiting the Earth. Examples of debris include non-operational satellites, rocket bodies, and fragments generated from explosions, collisions, or faulty payload assembly.

Loading next visibility...
Identifier
41131, 2000-055BN
Orbit
SSO
Country
Flag of USUS
Related business
Manufacturer
Unknown
Mission
Spacecraft
Bus & Motor
Unknown
Mass
Unknown
Launch date (UTC)
2000-09-21 (25 years ago)
Launch vehicle
Unknown
Launch site
Air Force Western Test Range (AFWTR)
Object type
Payload
Rocket body
Debris
Shape & HBR
Unknown shape, 0.1 m
Radar Cross Section
Small (<0.1 m²)

Expand to show TLE details & history
Last TLE update: 6 hours ago

TLE from 6 hours ago
0 NOAA 16 DEB
1 41131U 00055BN  25349.95068659  .00002149  00000-0  12572-2 0  9996
2 41131  98.7806 351.2218 0054352 173.8240 186.3612 14.08613662512323
Epoch: 2025-12-15T22:48Z
TLE epoch observation values (Epoch: 2025-12-15T22:48:59.321Z)
Latitude
0.00001°
Longitude
-75.86727°
Altitude
906.147 km
Speed
7.379 km/s
True Right ascension
23h 24m 53s
True Declination
0° 00' 00"
Sunlit
Object was in daylight at epoch
Visualization orbit readout
Latitude
Unknown
Longitude
Unknown
Altitude
Unknown
Speed
Unknown
Apparent Right ascension
Unknown
Apparent Declination
Unknown
Sunlit
N/A
Visualization observer readout
Local Sidereal Time
03:03:13
Azimuth
Unknown
Elevation
Unknown
Doppler factor
Unknown
Orbital elements
Apogee altitude
900.645 km
Perigee altitude
821.949 km
Semi-major axis
7,239.434 km
Eccentricity
0.00544
Inclination
98.7806°
RAAN
351.2218°
Arg. of periapsis
173.824°
True anomaly
186.29266°
Mean anomaly
186.3612°
Eccentric anomaly
186.32688°
Mean motion
3.5236 °/min
Orbital period
102.17 mins
BSTAR
0.0012572
Loading maneuver chart data...
Computing Atmospheric mass density...
Loading historical data...
Loading historical data...
Loading historical data...
Loading historical data...
Loading historical data...
Loading historical data...
Loading historical data...

Documentation

Showing up to 5 results
|